2018-104L (43859 NORAD) Tracking and Keplerian Element Data

This shows tracking and keplerian element data for the satellite.

Feedback or suggestion? Click here.




ElementValue
Catalog43859
Name2018-104L
Epoch Orbit22672
Epoch Day14.18987265
Epoch Year2023
RAAN271.1247
Inclination85.0262
Eccentricity0.0009799
Argument of Perigee190.7642
Mean Anonmoly169.3396
Mean Motion15.29723651
Decay Rate0.00023395
L11 43859U 18104L 23014.18987265 .00023395 00000+0 80920-3 0 9992
L22 43859 85.0262 271.1247 0009799 190.7642 169.3396 15.29723651226728



Live tracking and technical data element details for 2018-104L (NORAD 43859). 2018-104L can be tracked NOW for your location showing map with azimuth and elevation plus other details from your city location.







IsCatalogInMostPopularTable: catalog: 43859, numindb: 306
Update: records affected: 1



GetName: 43859 2018-104L

Hit Count: updated at: Fri, 16 May 2025 11:30:25 GMT